Hourly Weather Roundup
Issued by NWS Central Illinois

Home | Current Version | Previous Version | Text Only | Print | Product List | Glossary On
Versions: 1 2 3 4 5 6 7 8 9 10 11 12 13 14 15 16 17 18 19 20 21 22 23 24 25 26 27 28 29 30 31 32 33 34 35 36 37 38 39 40 41 42 43 44 45 46 47 48 49 50
014
NZUS43 KILX 262310
HWRILX

Area Weather Roundup
National Weather Service Lincoln IL
600 PM CDT WED JUL 26 2017

NOTE:  "FAIR" indicates few or no clouds below 12,000 feet, with
       no sigificant weather and/or obstructions to visibility.


CITY           SKY/WX    TMP DP  RH WIND       PRES   REMARKS
Bloomington    CLOUDY    85  73  67 SW7       29.98F HX  91
Champaign      CLOUDY    86  77  74 S3        29.97F HX  97
Danville       CLOUDY    84  75  75 SE5       29.96F HX  91
Decatur        MOSUNNY   88  74  63 S5        29.96F HX  96
Effingham      MOSUNNY   88  75  64 S8G16     29.98F HX  98
Flora          PTSUNNY   85  77  75 S5        29.97R HX  96
Galesburg      LGT RAIN  82  77  86 S3        29.95F HX  89
Jacksonville   CLOUDY    85  76  73 CALM      29.94F HX  95
Lacon          CLOUDY    82  77  83 SE6       29.93F HX  91
Lawrenceville  PTSUNNY   83  72  69 SW14      29.99R HX  88
Litchfield     CLOUDY    88  76  67 CALM      29.97F HX  98
$$


CITY           SKY/WX    TMP DP  RH WIND       PRES   REMARKS
Lincoln        CLOUDY    89  79  73 CALM      29.95F HX 104
Macomb         CLOUDY    82  77  86 CALM      29.96S HX  90
Mattoon        PTSUNNY   87  78  74 VRB5      29.96F HX 100
Mt Carmel AP   PTSUNNY   81  71  72 SW3       29.99S HX  85
Olney-Noble AP PTSUNNY   79  77  93 E10       30.01R HX  84
Paris AP       MOSUNNY   85  78  81 SE5       29.99F HX  96
Peoria         CLOUDY    85  78  80 S6        29.94F HX  96
Pontiac        CLOUDY    82  79  90 SE7       29.96F HX  92
Rantoul        PTSUNNY   87  77  72 SE7       29.97F HX  99
Robinson       PTSUNNY   87  79  77 S5        29.99S HX 101
Springfield    CLOUDY    89  77  67 CALM      29.96F HX 101
Taylorville    CLOUDY    89  76  65 CALM      29.97S HX  99
$$

...REGIONAL REPORTS...


CITY           SKY/WX    TMP DP  RH WIND       PRES   REMARKS
Chicago O`Hare CLOUDY    82  70  66 SW7       29.97F HX  86
Kankakee       CLOUDY    82  72  70 S6        29.99F HX  87
Moline         CLOUDY    83  77  82 W15G31    29.93S THUNDER HX  92
Mount Sterling CLOUDY    81  75  82 CALM      29.94S HX  88
Mount Vernon   CLOUDY    82  76  81 SE6       29.98F HX  89
Pittsfield     CLOUDY    86  79  80 CALM      29.96F HX  99
Quincy         CLOUDY    79  70  74 S6        29.95F HX  82
Rockford       CLOUDY    82  74  76 S8        29.96F HX  88
$$


CITY           SKY/WX    TMP DP  RH WIND       PRES   REMARKS
Burlington     TSTM      74  73  97 CALM      29.97R FOG
Cedar Rapids   NOT AVBL
Des Moines     CLOUDY    79  71  76 S5        29.96S HX  82
Kirksville     CLOUDY    82  76  81 SW5       29.99S HX  89
Ottumwa        CLOUDY    82  73  74 NW8       29.95S HX  87
St Louis       CLOUDY    94  75  54 N6        29.96F HX 105
$$


CITY           SKY/WX    TMP DP  RH WIND       PRES   REMARKS
Terre Haute    MOSUNNY   85  76  74 SE3       29.98F HX  94
Evansville     CLOUDY    78  73  84 SW15      30.02R THUNDER HX  81
Indianapolis   CLOUDY    82  71  69 SE7       30.01F HX  86
Lafayette      CLOUDY    81  73  76 CALM      29.99F HX  86
Madison        TSTM      72  71  97 CALM      29.97S FOG
Milwaukee      CLOUDY    74  70  87 N15G26    29.99R
$$






USA.gov is the U.S. government's official web portal to all federal, state and local government web resources and services.